SCP
-0 -0 -0 -0 -0 -0 -0 -0 -0 -0 -0 -0 -0 0 0 0 -0 -0 -0 0 0 0 0 0 0 0 0 0 0 0 0 0 0 0 0 0 0 0 0 0 0 0 0 0 0 0 0 0 0 0 0 0 0 0
-0 0 -0 -0 -0 -0 -0 -0 -0 -0 0 0 0 0 0 0 -0 -0 -0 -0 0 -0 -0 -0 -0 -0 0 0 0 0 -0 0 0 0 0 0 0 0 0 0 0 0 0 0 0 0 0 0 0 0 0 0 0 0
-0 0 -0 -0 -0 -0 -0 -0 -0 -0 -0 -0 0 0 0 0 -0 -0 -0 -0 -0 -0 -0 0 0 0 -0 -0 0 -0 0 -0 0 0 0 0 0 0 0 0 0 0 0 0 0 0 0 0 0 0 0 0 0 -0
0 -0 -0 -0 -0 -0 -0 -0 -0 -0 -0 -0 -0 0 -0 -0 -0 0 0 0 -0 -0 -0 -0 0 0 0 -0 0 0 0 -0 0 0 0 0 0 0 0 0 0 0 0 0 0 0 0 0 -0 -0 -0 -0 -0 -0
0 -0 -0 -0 -0 -0 -0 -0 0 -0 -0 -0 -0 -0 -0 -0 -0 0 0 -0 0 -0 -0 0 0 0 -0 -0 -0 0 0 0 0 -0 -0 0 0 0 0 0 -0 0 -0 0 -0 -0 0 -0 -0 -0 0 -0 -0 0
-0 -0 -0 -0 -0 -0 -0 -0 0 -0 -0 -0 -0 -0 -0 -0 -0 0 0 0 0 0 0 0 0 0 0 0 -0 -0 0 0 0 0 0 0 0 0 0 0 0 0 -0 0 -0 0 0 0 -0 -0 0 0 0 0
-0 -0 -0 -0 -0 -0 -0 0 0 -0 -0 -0 -0 0 0 -0 0 0 0 0 0 0 0 0 0 0 0 0 0 0 0 0 0 0 0 0 0 0 0 0 0 0 0 0 0 0 0 -0 -0 0 0 0 0 0
-0 -0 -0 -0 -0 -0 0 0 0 -0 -0 -0 -0 -0 -0 0 0 0 0 0 0 0 0 0 0 0 0 0 0 0 0 0 0 0 0 0 0 0 0 0 0 0 0 0 0 -0 -0 0 0 0 0 0 0 0
-0 -0 -0 -0 -0 -0 0 0 0 0 -0 -0 -0 -0 0 0 0 0 -0 0 -0 0 -0 -0 -0 0 0 -0 0 0 0 0 0 0 0 0 0 0 0 0 -0 -0 -0 -0 -0 0 0 0 0 0 0 0 0 0
-0 -0 -0 -0 -0 0 0 0 0 0 -0 -0 0 0 0 0 0 -0 0 0 0 -0 -0 -0 0 -0 0 -0 0 -0 0 0 0 0 -0 0 0 0 -0 -0 0 -0 -0 -0 -0 0 0 0 0 0 0 0 0 0
-0 -0 -0 -0 0 0 0 0 0 0 0 0 0 0 0 0 0 0 0 0 0 0 -0 -0 -0 -0 -0 -0 -0 0 0 0 0 0 -0 -0 0 -0 0 -0 0 -0 -0 0 0 0 0 0 0 0 0 0 0 0
-0 -0 -0 -0 0 0 0 0 -0 0 0 0 0 0 0 0 0 0 0 0 0 0 0 -0 -0 -0 -0 0 0 -0 0 0 0 0 0 0 0 0 -0 -0 -0 -0 0 0 0 0 0 0 0 0 0 0 0 0
-0 -0 -0 -0 0 0 0 0 -0 0 0 0 0 0 0 0 0 0 0 0 0 0 0 -0 -0 0 0 0 0 0 0 -0 0 0 0 -0 -0 -0 0 0 0 0 0 0 0 0 0 0 0 0 0 0 0 0
-0 -0 -0 0 0 0 0 0 0 0 0 0 0 0 0 0 0 0 0 0 0 0 0 0 0 0 0 0 0 0 0 0 0 0 0 -0 -0 0 0 0 0 0 0 0 0 0 0 0 0 0 0 0 0 0
-0 -0 -0 0 0 0 0 0 -0 0 0 0 0 0 0 0 0 0 0 0 0 0 0 0 0 0 0 0 0 0 -0 0 0 0 -0 -0 0 0 0 0 0 0 -0 0 0 0 0 0 0 0 0 0 0 0
-0 -0 0 0 0 0 0 -0 0 0 0 0 0 0 0 0 0 0 0 0 0 0 0 0 0 0 0 -0 -0 0 0 0 0 0 -0 0 0 0 0 -0 -0 -0 0 0 -0 0 0 -0 0 0 0 0 0 0
-0 0 0 0 0 0 -0 0 0 0 0 0 0 0 0 0 0 0 0 0 0 0 0 0 0 0 0 0 0 0 0 0 0 -0 0 0 0 0 0 -0 -0 -0 -0 -0 -0 -0 -0 -0 -0 0 0 0 0 0
0 0 -0 0 0 -0 -0 0 0 0 0 0 0 0 0 0 0 0 0 0 0 0 0 0 0 0 0 0 0 0 0 0 0 0 0 0 0 -0 -0 -0 -0 0 0 0 -0 -0 0 0 0 0 0 0 0 0
0 -0 -0 0 0 0 0 0 0 0 0 0 0 0 0 0 0 0 0 0 0 0 0 0 0 0 0 0 0 0 0 0 0 0 0 0 -0 -0 -0 -0 -0 0 0 0 0 0 0 0 0 0 0 0 0 0
-0 -0 0 0 0 0 0 0 0 0 0 0 0 0 0 0 0 0 0 0 0 0 0 0 0 0 0 0 0 0 0 0 0 0 0 -0 0 -0 -0 0 0 0 0 0 0 0 0 0 0 0 0 0 0 0
-0 0 0 0 0 0 0 0 0 0 0 0 0 0 0 0 0 0 0 0 0 0 0 0 0 0 0 0 0 0 0 0 0 0 0 0 0 0 0 0 0 0 0 0 0 0 0 0 0 0 0 0 0 0
0 0 0 0 0 0 0 0 0 0 0 0 0 0 0 0 0 0 0 0 0 0 0 0 0 -0 0 0 0 0 0 0 0 0 0 0 0 0 0 0 0 0 0 0 0 0 0 0 0 0 0 0 0 0
0 0 0 0 0 0 0 0 0 0 0 0 0 0 0 0 0 0 0 0 0 0 0 0 -0 0 0 0 0 0 0 0 0 0 0 0 0 0 0 0 0 0 0 0 0 0 0 0 0 0 0 0 0 0
0 0 0 0 0 0 0 0 0 0 0 0 0 0 0 0 0 0 0 0 0 0 0 0 0 0 0 0 0 0 0 0 0 0 0 0 0 0 0 0 0 0 0 0 0 0 0 0 0 0 0 0 0 0
0 0 0 0 0 0 0 0 0 0 0 0 0 0 0 0 0 0 0 0 0 0 0 0 0 0 0 0 0 0 -0 0 0 0 -0 0 0 0 0 0 0 0 0 0 0 0 0 0 0 0 0 0 0 0
0 0 0 0 0 0 0 0 0 0 0 0 0 0 0 0 0 0 0 0 0 0 0 0 0 0 -0 0 0 0 0 0 0 0 0 0 0 0 0 0 0 0 0 0 0 0 0 0 0 0 0 0 0 0
0 0 0 0 0 0 0 0 0 0 0 0 0 0 0 0 0 0 0 0 0 0 0 0 0 0 0 0 0 0 0 0 0 0 0 0 0 0 0 0 0 0 0 0 0 0 0 0 0 0 0 0 0 0
0 0 0 0 0 0 0 0 0 0 0 0 0 0 0 0 0 0 0 0 0 0 0 0 0 0 0 0 0 0 0 0 0 0 0 0 0 0 0 0 0 0 0 0 0 0 0 0 0 0 0 0 0 0
0 0 0 0 0 0 0 0 0 0 0 0 0 0 0 0 0 0 0 0 0 0 0 0 0 0 0 0 0 0 0 0 0 0 0 0 0 0 0 0 0 0 0 0 0 0 0 0 0 0 0 0 0 0
0 0 0 0 0 0 0 0 0 0 0 0 0 0 0 0 0 0 0 0 0 0 0 0 0 0 0 0 0 0 0 0 0 0 0 0 0 0 0 0 0 0 0 0 0 0 0 0 0 0 0 0 0 0
0 0 0 0 0 0 0 0 0 0 0 0 0 0 0 0 0 0 0 0 0 0 0 0 0 0 0 0 0 0 0 0 0 0 0 0 0 0 0 0 0 0 0 0 0 0 0 0 0 0 0 0 0 0
0 0 0 0 0 0 0 0 0 0 0 0 0 0 0 0 0 0 0 0 0 0 0 0 0 0 0 0 0 0 0 0 0 0 0 0 0 0 0 0 0 0 0 0 0 0 0 0 0 0 0 0 0 0
0 0 0 0 0 0 0 0 0 0 0 0 0 0 0 0 0 0 0 0 0 -0 0 0 0 -0 0 0 0 0 0 0 0 0 0 0 0 0 0 0 0 0 0 0 0 0 0 0 0 0 0 0 0 0
Wind_Speed_500mb
28 29 31 32 30 31 36 31 22 23 29 36 36 43 48 51 65 61 57 55 61 67 44 44 43 34 17 10 2 11 5 11 8 8 5 2 5 2 8 4 6 6 6 2 5 7 1 12 5 12 10 13 8 4
26 29 31 29 25 27 33 30 19 13 18 24 30 31 36 35 44 60 67 62 65 63 43 43 46 31 24 19 6 8 3 4 3 8 3 5 7 6 4 3 8 7 6 8 7 9 5 18 22 18 15 13 7 3
24 27 29 26 23 24 29 29 20 7 10 25 19 25 31 31 28 40 38 23 21 35 49 47 47 45 39 32 16 3 3 3 8 13 10 4 11 3 4 4 7 4 4 8 6 2 11 14 13 12 11 12 3 6
23 25 25 24 23 22 25 26 21 13 15 20 20 21 24 30 29 22 26 27 32 22 10 28 36 42 43 30 29 19 15 22 25 29 17 7 7 7 2 5 7 3 7 7 5 8 9 8 7 7 8 6 5 1
20 21 21 23 24 20 21 23 22 18 18 21 20 17 16 12 22 23 23 28 34 23 6 21 35 37 39 41 37 27 19 23 18 13 15 5 6 10 5 6 7 6 10 7 9 24 8 10 9 6 9 6 7 5
18 18 18 21 24 21 18 19 21 18 13 10 9 15 16 2 8 8 5 20 7 2 4 4 17 25 26 29 36 39 37 34 26 14 10 10 11 6 6 3 3 12 18 22 13 21 11 7 7 5 9 5 10 6
16 15 16 19 23 22 17 16 16 14 13 8 5 10 13 11 11 8 10 18 19 9 2 4 6 19 25 21 33 26 34 29 22 11 12 7 13 10 4 4 2 8 15 16 16 14 7 6 1 6 5 6 14 9
15 14 14 18 22 22 18 14 11 11 13 11 8 7 11 18 18 16 19 24 22 8 9 6 8 9 30 19 11 24 16 16 18 10 7 7 8 9 5 7 7 11 13 12 14 12 8 5 9 10 11 10 4 10
15 13 13 17 21 22 19 16 15 14 13 15 5 6 4 9 12 27 24 12 25 21 7 9 3 5 13 15 14 7 12 8 8 8 6 5 3 5 9 10 10 9 7 5 4 11 14 15 12 14 17 14 12 8
15 12 11 15 19 21 21 20 18 16 13 12 12 4 5 17 20 14 8 6 6 10 9 6 8 5 8 11 14 7 10 3 4 3 4 9 3 9 4 18 19 21 13 11 9 7 5 9 14 16 20 20 21 20
14 11 10 13 18 21 23 23 20 16 10 6 9 7 14 16 11 8 8 12 14 8 10 11 12 8 7 6 3 11 2 4 4 4 6 3 5 7 7 7 17 20 17 17 18 19 18 17 17 19 19 20 28 30
14 11 9 11 16 21 25 26 19 14 14 14 13 9 13 11 9 10 6 9 9 2 15 15 16 13 5 1 5 6 3 7 1 6 6 3 8 5 5 14 13 7 1 3 9 11 14 12 7 7 7 11 15 23
15 11 7 9 14 19 23 24 18 16 16 9 8 6 8 9 15 7 7 8 6 9 10 20 24 8 5 7 6 5 4 5 10 7 4 8 8 6 5 7 3 6 8 3 3 3 4 4 7 8 11 12 11 12
15 9 8 11 15 18 21 18 10 16 9 6 8 10 6 7 2 4 7 8 13 11 19 21 17 6 7 7 3 2 1 6 6 4 6 6 13 12 10 9 7 7 5 6 8 8 7 1 2 6 3 6 17 20
12 9 10 15 16 18 15 9 9 14 8 7 5 4 2 2 2 4 9 11 10 15 22 23 8 5 9 6 7 3 5 4 7 8 6 20 19 14 11 7 2 4 8 4 3 2 8 7 8 12 9 12 21 20
14 10 14 15 14 11 1 5 7 10 6 5 5 4 1 2 5 6 8 11 13 21 13 4 4 5 5 2 3 5 4 6 7 9 11 22 17 10 6 5 4 6 7 11 13 11 11 12 21 12 13 20 21 24
12 12 15 14 10 2 7 8 8 6 7 4 3 2 3 3 9 7 10 13 17 13 6 3 5 2 1 4 2 5 7 6 8 10 20 18 11 8 7 8 10 13 14 13 12 13 18 23 26 26 21 17 17 27
12 12 14 16 8 1 6 7 5 5 3 3 3 7 7 6 7 9 9 10 9 8 7 2 3 5 4 4 7 7 8 2 5 15 12 13 13 10 9 8 8 8 7 12 17 18 20 25 16 9 13 17 17 20
8 7 10 11 12 8 5 4 5 4 2 6 4 8 7 5 7 12 12 18 18 15 9 2 5 3 5 9 7 9 14 16 12 14 9 6 11 10 9 7 12 19 26 33 19 20 18 13 7 14 15 9 10 5
9 8 11 5 10 6 5 3 4 4 4 4 11 9 8 3 7 5 13 16 15 1 1 0 3 3 4 13 12 9 4 1 18 27 26 19 14 12 10 15 23 29 18 20 6 4 1 2 16 19 17 13 3 3
10 10 6 5 6 5 5 6 5 4 6 7 13 10 5 6 4 4 8 13 9 8 6 4 3 6 11 11 9 13 10 9 8 10 21 18 21 26 26 27 19 15 12 10 17 13 24 25 16 11 11 4 2 10
11 7 3 3 3 4 8 8 6 9 7 12 14 9 7 6 7 6 2 7 8 8 9 0 2 6 14 14 13 11 13 18 7 6 6 7 10 9 5 6 7 7 10 25 10 14 13 14 10 7 15 9 10 17
14 8 4 4 5 6 7 9 7 6 6 4 4 4 5 7 7 16 2 2 6 9 11 11 15 17 15 15 17 17 17 21 27 19 11 9 6 7 5 7 0 5 9 5 8 17 19 12 7 10 10 9 11 12
14 6 5 5 8 8 7 7 8 7 6 4 4 4 6 9 22 7 5 7 8 10 9 11 14 13 9 8 14 16 12 10 18 12 8 8 18 14 14 9 7 7 7 15 18 13 8 6 7 9 9 10 10 9
6 8 7 9 8 6 7 6 10 5 5 8 4 6 6 11 7 6 7 8 16 18 11 7 7 6 3 2 7 15 4 17 12 7 10 10 11 15 18 15 5 7 15 12 9 11 7 7 12 14 11 8 4 2
6 9 11 9 7 9 9 3 4 8 7 4 9 5 5 4 4 6 9 14 17 15 16 10 6 8 5 5 6 7 9 5 4 3 6 13 16 20 14 7 7 11 13 15 12 9 11 14 19 14 8 6 4 4
6 11 14 15 11 9 7 7 6 5 6 7 6 5 2 4 6 6 10 19 19 12 9 5 8 12 11 7 7 10 13 15 12 6 10 13 10 10 10 15 16 15 16 18 15 15 16 18 17 14 14 11 10 11
13 9 11 5 13 19 9 6 5 6 8 7 7 6 5 8 10 9 18 12 19 19 19 13 6 12 7 9 14 15 21 21 16 14 18 18 18 19 16 14 13 16 18 20 21 20 20 22 18 15 16 18 18 13
11 12 11 17 17 10 10 14 12 9 11 10 8 6 7 10 13 13 14 15 16 25 30 30 30 24 26 22 21 23 18 18 20 28 20 28 31 30 23 17 21 22 28 23 22 21 19 18 18 19 18 19 21 22
12 16 10 9 6 6 16 21 27 27 27 23 19 14 16 19 20 18 20 21 25 26 25 20 17 30 26 21 19 25 25 17 27 29 32 27 35 28 17 23 21 25 21 21 24 24 22 24 21 23 23 25 29 22
12 16 14 16 13 16 5 5 15 17 16 15 15 20 31 32 28 26 25 27 24 22 14 7 8 18 17 9 8 12 19 19 15 14 10 9 12 15 22 20 19 17 20 24 25 23 24 22 21 20 22 26 31 39
10 9 5 5 9 16 26 16 13 18 24 29 30 33 33 31 30 23 21 20 15 12 19 27 26 21 19 12 4 8 6 5 7 13 12 16 20 17 18 27 25 21 22 20 27 29 25 26 25 27 29 32 35 35
16 14 11 9 6 4 8 20 14 12 20 28 32 37 36 27 15 12 17 14 14 25 25 21 21 21 21 11 11 14 12 10 12 11 15 13 13 19 22 20 20 26 28 23 24 26 24 27 33 37 31 28 27 36
Wind_Direction_500mb
21 22 22 21 29 32 27 40 67 62 50 44 44 40 36 38 42 57 75 79 95 86 60 55 52 40 23 20 70 334 30 0 45 64 93 331 72 77 79 12 82 83 95 85 77 94 98 4 78 142 165 140 139 184
20 22 20 23 34 33 31 37 55 67 42 38 37 34 35 34 54 68 77 80 84 82 78 65 52 39 35 21 336 16 136 249 141 94 73 90 41 42 137 84 16 36 162 149 139 196 167 72 98 114 115 117 154 229
21 22 20 32 37 33 31 31 41 44 10 10 43 42 50 55 59 53 66 64 70 76 67 62 48 48 39 31 12 213 25 5 94 100 121 145 80 36 70 37 90 72 101 91 72 277 140 125 115 121 139 120 101 343
23 22 24 34 33 32 28 26 29 30 27 56 65 68 60 58 52 44 59 67 63 65 61 45 62 52 40 33 40 77 99 123 100 88 73 60 97 52 41 141 103 207 58 116 44 132 152 188 185 136 159 197 261 72
21 22 26 28 27 25 21 20 24 33 55 76 81 68 46 62 77 66 61 64 70 88 109 49 60 59 50 55 53 55 96 124 88 60 60 71 61 73 24 71 6 6 157 130 203 181 156 163 165 206 201 165 169 240
17 20 22 21 19 18 15 14 15 25 45 87 57 8 24 148 311 335 309 26 30 314 15 32 42 38 43 48 58 60 73 76 90 74 72 73 45 117 88 95 318 80 102 118 137 161 145 157 197 215 211 224 189 246
11 16 16 14 12 11 9 11 15 22 33 41 13 33 30 14 25 53 45 2 7 27 72 63 6 21 13 36 46 55 72 68 58 67 52 57 27 52 56 84 4 147 129 126 134 151 199 226 94 196 182 273 242 256
4 9 11 10 8 6 4 360 358 9 7 358 10 36 54 55 69 54 17 7 10 24 39 66 317 17 17 19 23 28 37 47 47 75 64 52 38 35 84 160 66 155 153 153 163 172 162 188 259 214 232 221 214 210
359 2 6 7 6 4 357 346 330 323 353 2 12 33 53 22 6 341 334 4 54 48 71 44 68 287 357 21 11 17 29 53 46 68 54 55 304 53 216 192 197 193 211 256 288 239 264 272 280 237 223 232 264 251
356 357 4 5 2 357 354 348 335 313 307 334 343 347 27 339 337 334 344 356 43 54 58 27 343 303 349 26 20 20 22 49 54 306 83 49 294 314 270 230 218 217 226 243 275 250 269 269 285 255 240 264 271 275
352 354 359 5 2 355 355 354 350 343 336 17 14 7 355 348 360 7 31 36 6 35 19 352 334 320 354 21 48 29 341 347 68 276 102 358 326 304 8 139 197 217 234 253 273 275 285 286 290 276 254 268 270 266
351 351 358 4 359 356 354 354 359 4 12 359 341 349 359 13 29 54 4 9 32 332 351 340 334 308 318 242 108 177 89 354 28 132 73 346 255 209 112 95 102 111 138 294 261 278 254 261 277 250 270 319 297 286
348 351 348 347 348 348 347 348 354 3 341 349 4 357 13 11 36 56 358 322 336 324 339 340 341 306 277 245 142 150 157 216 134 45 213 226 213 235 268 236 190 71 48 16 354 358 79 182 238 274 291 308 320 330
346 346 331 329 333 337 337 342 9 2 4 5 15 13 82 346 29 205 208 231 312 303 330 332 332 309 320 26 7 91 133 93 53 47 243 244 182 154 125 118 107 103 45 43 75 52 38 70 326 326 4 354 337 343
346 335 331 327 326 331 334 354 5 5 21 19 44 48 2 307 303 298 313 315 350 338 329 325 331 338 348 47 0 348 20 1 181 226 235 183 170 155 158 160 228 306 315 234 262 273 325 320 315 313 297 319 310 319
343 340 343 335 331 336 355 1 13 39 31 24 69 75 138 305 300 264 307 324 343 341 332 4 26 32 38 69 9 6 64 231 257 237 202 182 187 192 204 206 258 302 312 309 314 284 299 281 310 305 313 294 293 304
341 347 348 349 344 28 25 11 25 27 7 60 103 105 176 290 290 303 341 347 343 340 353 8 33 311 266 60 327 160 195 233 270 188 182 193 209 232 256 267 265 288 310 316 304 299 306 310 305 297 285 283 285 303
322 337 344 359 12 21 44 47 24 358 59 116 208 288 277 281 308 316 299 315 313 328 326 312 310 53 148 195 283 251 251 290 209 193 215 224 223 233 244 273 296 314 307 296 296 298 305 317 312 316 280 294 314 315
330 326 326 346 8 1 348 360 356 330 302 336 252 282 283 293 273 311 307 309 290 271 270 205 101 169 237 224 250 267 258 224 237 231 225 222 228 232 252 228 268 298 315 321 288 272 271 286 330 333 338 344 327 355
323 309 313 322 347 342 322 266 279 268 277 288 297 276 281 289 316 325 351 10 359 354 288 183 180 141 269 295 287 224 77 246 252 243 237 226 207 211 230 279 298 317 335 332 294 290 246 15 314 330 329 315 259 291
318 297 283 284 309 308 278 291 273 265 286 261 277 273 215 233 233 343 352 357 6 357 307 242 264 43 35 355 247 237 248 246 258 252 233 249 240 251 267 286 292 329 331 57 49 346 308 309 296 328 349 322 267 340
329 331 268 293 296 275 268 247 265 282 274 265 282 240 221 226 220 201 185 3 336 316 331 151 106 315 320 318 332 314 265 261 278 237 222 205 184 135 187 295 269 239 277 302 301 280 300 296 275 270 327 333 322 334
325 301 280 257 261 252 255 237 249 240 231 251 226 222 231 215 189 160 169 246 285 309 304 311 317 312 308 319 307 292 271 261 258 268 245 218 193 168 7 343 81 290 265 242 297 305 301 281 251 277 290 278 305 321
305 278 243 242 227 260 255 236 228 236 243 236 225 258 227 196 168 198 200 223 232 265 287 298 320 329 326 5 1 333 246 204 168 160 303 204 182 224 236 210 212 214 284 310 299 302 315 246 281 290 273 272 299 326
280 226 228 246 233 243 247 233 213 208 245 217 244 282 220 175 167 190 196 231 236 234 246 282 284 210 253 348 3 29 106 193 196 254 156 123 142 161 174 172 197 359 1 334 327 333 322 314 318 311 294 262 272 72
251 219 208 219 229 199 229 243 197 209 200 229 237 246 231 181 169 222 201 216 225 234 229 222 213 194 162 108 53 41 15 9 303 304 222 235 243 223 214 235 306 330 344 330 335 343 326 323 328 311 284 254 237 256
258 259 232 232 252 274 269 258 254 219 220 220 226 197 169 251 236 244 203 206 213 217 189 202 251 253 256 258 300 305 305 267 247 266 241 223 247 238 277 307 308 311 304 285 272 308 312 313 316 305 294 274 279 289
246 263 219 254 276 248 233 219 221 223 239 227 174 191 217 208 227 220 222 233 235 234 235 231 241 261 282 251 252 260 272 250 235 252 246 241 221 226 251 261 270 296 304 289 266 286 294 296 293 294 290 283 292 292
249 245 280 274 273 259 240 224 219 232 254 210 200 223 241 237 244 266 232 258 251 243 247 252 248 246 246 255 267 273 280 251 242 230 242 244 251 237 224 249 286 297 313 306 275 279 285 287 287 294 283 265 265 268
259 266 249 277 283 259 272 263 251 264 256 243 237 232 234 246 264 271 262 286 254 255 264 262 264 238 245 257 269 292 286 269 229 239 281 274 270 237 242 279 286 313 311 299 294 287 275 276 276 282 277 276 275 262
265 274 282 283 277 281 299 285 253 254 230 234 259 282 294 295 287 277 283 283 263 237 232 198 211 223 227 253 286 294 289 265 277 263 249 227 214 235 255 257 309 307 296 293 292 286 290 291 287 293 284 266 279 289
271 262 258 292 305 307 317 309 287 277 276 269 273 289 289 283 280 293 264 209 181 225 275 272 277 250 226 201 242 267 266 309 288 236 235 245 265 267 262 291 301 292 302 281 290 287 283 272 277 291 286 282 283 281
286 279 274 274 276 283 329 329 301 280 282 283 295 297 291 281 265 270 254 236 262 254 265 235 233 223 201 210 232 237 239 240 234 231 220 230 266 284 288 284 288 290 297 293 287 295 288 287 290 294 292 293 294 278
Wind_Speed_850mb
28 29 31 32 30 31 36 31 22 23 29 36 36 43 48 51 65 61 57 55 61 67 44 44 43 34 17 10 2 11 5 11 8 8 5 2 5 2 8 4 6 6 6 2 5 7 1 12 5 12 10 13 8 4
26 29 31 29 25 27 33 30 19 13 18 24 30 31 36 35 44 60 67 62 65 63 43 43 46 31 24 19 6 8 3 4 3 8 3 5 7 6 4 3 8 7 6 8 7 9 5 18 22 18 15 13 7 3
24 27 29 26 23 24 29 29 20 7 10 25 19 25 31 31 28 40 38 23 21 35 49 47 47 45 39 32 16 3 3 3 8 13 10 4 11 3 4 4 7 4 4 8 6 2 11 14 13 12 11 12 3 6
23 25 25 24 23 22 25 26 21 13 15 20 20 21 24 30 29 22 26 27 32 22 10 28 36 42 43 30 29 19 15 22 25 29 17 7 7 7 2 5 7 3 7 7 5 8 9 8 7 7 8 6 5 1
20 21 21 23 24 20 21 23 22 18 18 21 20 17 16 12 22 23 23 28 34 23 6 21 35 37 39 41 37 27 19 23 18 13 15 5 6 10 5 6 7 6 10 7 9 24 8 10 9 6 9 6 7 5
18 18 18 21 24 21 18 19 21 18 13 10 9 15 16 2 8 8 5 20 7 2 4 4 17 25 26 29 36 39 37 34 26 14 10 10 11 6 6 3 3 12 18 22 13 21 11 7 7 5 9 5 10 6
16 15 16 19 23 22 17 16 16 14 13 8 5 10 13 11 11 8 10 18 19 9 2 4 6 19 25 21 33 26 34 29 22 11 12 7 13 10 4 4 2 8 15 16 16 14 7 6 1 6 5 6 14 9
15 14 14 18 22 22 18 14 11 11 13 11 8 7 11 18 18 16 19 24 22 8 9 6 8 9 30 19 11 24 16 16 18 10 7 7 8 9 5 7 7 11 13 12 14 12 8 5 9 10 11 10 4 10
15 13 13 17 21 22 19 16 15 14 13 15 5 6 4 9 12 27 24 12 25 21 7 9 3 5 13 15 14 7 12 8 8 8 6 5 3 5 9 10 10 9 7 5 4 11 14 15 12 14 17 14 12 8
15 12 11 15 19 21 21 20 18 16 13 12 12 4 5 17 20 14 8 6 6 10 9 6 8 5 8 11 14 7 10 3 4 3 4 9 3 9 4 18 19 21 13 11 9 7 5 9 14 16 20 20 21 20
14 11 10 13 18 21 23 23 20 16 10 6 9 7 14 16 11 8 8 12 14 8 10 11 12 8 7 6 3 11 2 4 4 4 6 3 5 7 7 7 17 20 17 17 18 19 18 17 17 19 19 20 28 30
14 11 9 11 16 21 25 26 19 14 14 14 13 9 13 11 9 10 6 9 9 2 15 15 16 13 5 1 5 6 3 7 1 6 6 3 8 5 5 14 13 7 1 3 9 11 14 12 7 7 7 11 15 23
15 11 7 9 14 19 23 24 18 16 16 9 8 6 8 9 15 7 7 8 6 9 10 20 24 8 5 7 6 5 4 5 10 7 4 8 8 6 5 7 3 6 8 3 3 3 4 4 7 8 11 12 11 12
15 9 8 11 15 18 21 18 10 16 9 6 8 10 6 7 2 4 7 8 13 11 19 21 17 6 7 7 3 2 1 6 6 4 6 6 13 12 10 9 7 7 5 6 8 8 7 1 2 6 3 6 17 20
12 9 10 15 16 18 15 9 9 14 8 7 5 4 2 2 2 4 9 11 10 15 22 23 8 5 9 6 7 3 5 4 7 8 6 20 19 14 11 7 2 4 8 4 3 2 8 7 8 12 9 12 21 20
14 10 14 15 14 11 1 5 7 10 6 5 5 4 1 2 5 6 8 11 13 21 13 4 4 5 5 2 3 5 4 6 7 9 11 22 17 10 6 5 4 6 7 11 13 11 11 12 21 12 13 20 21 24
12 12 15 14 10 2 7 8 8 6 7 4 3 2 3 3 9 7 10 13 17 13 6 3 5 2 1 4 2 5 7 6 8 10 20 18 11 8 7 8 10 13 14 13 12 13 18 23 26 26 21 17 17 27
12 12 14 16 8 1 6 7 5 5 3 3 3 7 7 6 7 9 9 10 9 8 7 2 3 5 4 4 7 7 8 2 5 15 12 13 13 10 9 8 8 8 7 12 17 18 20 25 16 9 13 17 17 20
8 7 10 11 12 8 5 4 5 4 2 6 4 8 7 5 7 12 12 18 18 15 9 2 5 3 5 9 7 9 14 16 12 14 9 6 11 10 9 7 12 19 26 33 19 20 18 13 7 14 15 9 10 5
9 8 11 5 10 6 5 3 4 4 4 4 11 9 8 3 7 5 13 16 15 1 1 0 3 3 4 13 12 9 4 1 18 27 26 19 14 12 10 15 23 29 18 20 6 4 1 2 16 19 17 13 3 3
10 10 6 5 6 5 5 6 5 4 6 7 13 10 5 6 4 4 8 13 9 8 6 4 3 6 11 11 9 13 10 9 8 10 21 18 21 26 26 27 19 15 12 10 17 13 24 25 16 11 11 4 2 10
11 7 3 3 3 4 8 8 6 9 7 12 14 9 7 6 7 6 2 7 8 8 9 0 2 6 14 14 13 11 13 18 7 6 6 7 10 9 5 6 7 7 10 25 10 14 13 14 10 7 15 9 10 17
14 8 4 4 5 6 7 9 7 6 6 4 4 4 5 7 7 16 2 2 6 9 11 11 15 17 15 15 17 17 17 21 27 19 11 9 6 7 5 7 0 5 9 5 8 17 19 12 7 10 10 9 11 12
14 6 5 5 8 8 7 7 8 7 6 4 4 4 6 9 22 7 5 7 8 10 9 11 14 13 9 8 14 16 12 10 18 12 8 8 18 14 14 9 7 7 7 15 18 13 8 6 7 9 9 10 10 9
6 8 7 9 8 6 7 6 10 5 5 8 4 6 6 11 7 6 7 8 16 18 11 7 7 6 3 2 7 15 4 17 12 7 10 10 11 15 18 15 5 7 15 12 9 11 7 7 12 14 11 8 4 2
6 9 11 9 7 9 9 3 4 8 7 4 9 5 5 4 4 6 9 14 17 15 16 10 6 8 5 5 6 7 9 5 4 3 6 13 16 20 14 7 7 11 13 15 12 9 11 14 19 14 8 6 4 4
6 11 14 15 11 9 7 7 6 5 6 7 6 5 2 4 6 6 10 19 19 12 9 5 8 12 11 7 7 10 13 15 12 6 10 13 10 10 10 15 16 15 16 18 15 15 16 18 17 14 14 11 10 11
13 9 11 5 13 19 9 6 5 6 8 7 7 6 5 8 10 9 18 12 19 19 19 13 6 12 7 9 14 15 21 21 16 14 18 18 18 19 16 14 13 16 18 20 21 20 20 22 18 15 16 18 18 13
11 12 11 17 17 10 10 14 12 9 11 10 8 6 7 10 13 13 14 15 16 25 30 30 30 24 26 22 21 23 18 18 20 28 20 28 31 30 23 17 21 22 28 23 22 21 19 18 18 19 18 19 21 22
12 16 10 9 6 6 16 21 27 27 27 23 19 14 16 19 20 18 20 21 25 26 25 20 17 30 26 21 19 25 25 17 27 29 32 27 35 28 17 23 21 25 21 21 24 24 22 24 21 23 23 25 29 22
12 16 14 16 13 16 5 5 15 17 16 15 15 20 31 32 28 26 25 27 24 22 14 7 8 18 17 9 8 12 19 19 15 14 10 9 12 15 22 20 19 17 20 24 25 23 24 22 21 20 22 26 31 39
10 9 5 5 9 16 26 16 13 18 24 29 30 33 33 31 30 23 21 20 15 12 19 27 26 21 19 12 4 8 6 5 7 13 12 16 20 17 18 27 25 21 22 20 27 29 25 26 25 27 29 32 35 35
16 14 11 9 6 4 8 20 14 12 20 28 32 37 36 27 15 12 17 14 14 25 25 21 21 21 21 11 11 14 12 10 12 11 15 13 13 19 22 20 20 26 28 23 24 26 24 27 33 37 31 28 27 36
Wind_Direction_850mb
21 22 22 21 29 32 27 40 67 62 50 44 44 40 36 38 42 57 75 79 95 86 60 55 52 40 23 20 70 334 30 0 45 64 93 331 72 77 79 12 82 83 95 85 77 94 98 4 78 142 165 140 139 184
20 22 20 23 34 33 31 37 55 67 42 38 37 34 35 34 54 68 77 80 84 82 78 65 52 39 35 21 336 16 136 249 141 94 73 90 41 42 137 84 16 36 162 149 139 196 167 72 98 114 115 117 154 229
21 22 20 32 37 33 31 31 41 44 10 10 43 42 50 55 59 53 66 64 70 76 67 62 48 48 39 31 12 213 25 5 94 100 121 145 80 36 70 37 90 72 101 91 72 277 140 125 115 121 139 120 101 343
23 22 24 34 33 32 28 26 29 30 27 56 65 68 60 58 52 44 59 67 63 65 61 45 62 52 40 33 40 77 99 123 100 88 73 60 97 52 41 141 103 207 58 116 44 132 152 188 185 136 159 197 261 72
21 22 26 28 27 25 21 20 24 33 55 76 81 68 46 62 77 66 61 64 70 88 109 49 60 59 50 55 53 55 96 124 88 60 60 71 61 73 24 71 6 6 157 130 203 181 156 163 165 206 201 165 169 240
17 20 22 21 19 18 15 14 15 25 45 87 57 8 24 148 311 335 309 26 30 314 15 32 42 38 43 48 58 60 73 76 90 74 72 73 45 117 88 95 318 80 102 118 137 161 145 157 197 215 211 224 189 246
11 16 16 14 12 11 9 11 15 22 33 41 13 33 30 14 25 53 45 2 7 27 72 63 6 21 13 36 46 55 72 68 58 67 52 57 27 52 56 84 4 147 129 126 134 151 199 226 94 196 182 273 242 256
4 9 11 10 8 6 4 360 358 9 7 358 10 36 54 55 69 54 17 7 10 24 39 66 317 17 17 19 23 28 37 47 47 75 64 52 38 35 84 160 66 155 153 153 163 172 162 188 259 214 232 221 214 210
359 2 6 7 6 4 357 346 330 323 353 2 12 33 53 22 6 341 334 4 54 48 71 44 68 287 357 21 11 17 29 53 46 68 54 55 304 53 216 192 197 193 211 256 288 239 264 272 280 237 223 232 264 251
356 357 4 5 2 357 354 348 335 313 307 334 343 347 27 339 337 334 344 356 43 54 58 27 343 303 349 26 20 20 22 49 54 306 83 49 294 314 270 230 218 217 226 243 275 250 269 269 285 255 240 264 271 275
352 354 359 5 2 355 355 354 350 343 336 17 14 7 355 348 360 7 31 36 6 35 19 352 334 320 354 21 48 29 341 347 68 276 102 358 326 304 8 139 197 217 234 253 273 275 285 286 290 276 254 268 270 266
351 351 358 4 359 356 354 354 359 4 12 359 341 349 359 13 29 54 4 9 32 332 351 340 334 308 318 242 108 177 89 354 28 132 73 346 255 209 112 95 102 111 138 294 261 278 254 261 277 250 270 319 297 286
348 351 348 347 348 348 347 348 354 3 341 349 4 357 13 11 36 56 358 322 336 324 339 340 341 306 277 245 142 150 157 216 134 45 213 226 213 235 268 236 190 71 48 16 354 358 79 182 238 274 291 308 320 330
346 346 331 329 333 337 337 342 9 2 4 5 15 13 82 346 29 205 208 231 312 303 330 332 332 309 320 26 7 91 133 93 53 47 243 244 182 154 125 118 107 103 45 43 75 52 38 70 326 326 4 354 337 343
346 335 331 327 326 331 334 354 5 5 21 19 44 48 2 307 303 298 313 315 350 338 329 325 331 338 348 47 0 348 20 1 181 226 235 183 170 155 158 160 228 306 315 234 262 273 325 320 315 313 297 319 310 319
343 340 343 335 331 336 355 1 13 39 31 24 69 75 138 305 300 264 307 324 343 341 332 4 26 32 38 69 9 6 64 231 257 237 202 182 187 192 204 206 258 302 312 309 314 284 299 281 310 305 313 294 293 304
341 347 348 349 344 28 25 11 25 27 7 60 103 105 176 290 290 303 341 347 343 340 353 8 33 311 266 60 327 160 195 233 270 188 182 193 209 232 256 267 265 288 310 316 304 299 306 310 305 297 285 283 285 303
322 337 344 359 12 21 44 47 24 358 59 116 208 288 277 281 308 316 299 315 313 328 326 312 310 53 148 195 283 251 251 290 209 193 215 224 223 233 244 273 296 314 307 296 296 298 305 317 312 316 280 294 314 315
330 326 326 346 8 1 348 360 356 330 302 336 252 282 283 293 273 311 307 309 290 271 270 205 101 169 237 224 250 267 258 224 237 231 225 222 228 232 252 228 268 298 315 321 288 272 271 286 330 333 338 344 327 355
323 309 313 322 347 342 322 266 279 268 277 288 297 276 281 289 316 325 351 10 359 354 288 183 180 141 269 295 287 224 77 246 252 243 237 226 207 211 230 279 298 317 335 332 294 290 246 15 314 330 329 315 259 291
318 297 283 284 309 308 278 291 273 265 286 261 277 273 215 233 233 343 352 357 6 357 307 242 264 43 35 355 247 237 248 246 258 252 233 249 240 251 267 286 292 329 331 57 49 346 308 309 296 328 349 322 267 340
329 331 268 293 296 275 268 247 265 282 274 265 282 240 221 226 220 201 185 3 336 316 331 151 106 315 320 318 332 314 265 261 278 237 222 205 184 135 187 295 269 239 277 302 301 280 300 296 275 270 327 333 322 334
325 301 280 257 261 252 255 237 249 240 231 251 226 222 231 215 189 160 169 246 285 309 304 311 317 312 308 319 307 292 271 261 258 268 245 218 193 168 7 343 81 290 265 242 297 305 301 281 251 277 290 278 305 321
305 278 243 242 227 260 255 236 228 236 243 236 225 258 227 196 168 198 200 223 232 265 287 298 320 329 326 5 1 333 246 204 168 160 303 204 182 224 236 210 212 214 284 310 299 302 315 246 281 290 273 272 299 326
280 226 228 246 233 243 247 233 213 208 245 217 244 282 220 175 167 190 196 231 236 234 246 282 284 210 253 348 3 29 106 193 196 254 156 123 142 161 174 172 197 359 1 334 327 333 322 314 318 311 294 262 272 72
251 219 208 219 229 199 229 243 197 209 200 229 237 246 231 181 169 222 201 216 225 234 229 222 213 194 162 108 53 41 15 9 303 304 222 235 243 223 214 235 306 330 344 330 335 343 326 323 328 311 284 254 237 256
258 259 232 232 252 274 269 258 254 219 220 220 226 197 169 251 236 244 203 206 213 217 189 202 251 253 256 258 300 305 305 267 247 266 241 223 247 238 277 307 308 311 304 285 272 308 312 313 316 305 294 274 279 289
246 263 219 254 276 248 233 219 221 223 239 227 174 191 217 208 227 220 222 233 235 234 235 231 241 261 282 251 252 260 272 250 235 252 246 241 221 226 251 261 270 296 304 289 266 286 294 296 293 294 290 283 292 292
249 245 280 274 273 259 240 224 219 232 254 210 200 223 241 237 244 266 232 258 251 243 247 252 248 246 246 255 267 273 280 251 242 230 242 244 251 237 224 249 286 297 313 306 275 279 285 287 287 294 283 265 265 268
259 266 249 277 283 259 272 263 251 264 256 243 237 232 234 246 264 271 262 286 254 255 264 262 264 238 245 257 269 292 286 269 229 239 281 274 270 237 242 279 286 313 311 299 294 287 275 276 276 282 277 276 275 262
265 274 282 283 277 281 299 285 253 254 230 234 259 282 294 295 287 277 283 283 263 237 232 198 211 223 227 253 286 294 289 265 277 263 249 227 214 235 255 257 309 307 296 293 292 286 290 291 287 293 284 266 279 289
271 262 258 292 305 307 317 309 287 277 276 269 273 289 289 283 280 293 264 209 181 225 275 272 277 250 226 201 242 267 266 309 288 236 235 245 265 267 262 291 301 292 302 281 290 287 283 272 277 291 286 282 283 281
286 279 274 274 276 283 329 329 301 280 282 283 295 297 291 281 265 270 254 236 262 254 265 235 233 223 201 210 232 237 239 240 234 231 220 230 266 284 288 284 288 290 297 293 287 295 288 287 290 294 292 293 294 278